| time (UTC) | temp C | wind direction | speed KPH | gust KPH | rain 1hr cm | rain 24hr cm | rain mn cm | humidity % | barometer mb |
| 20260906222345 | 36 | 142 | 14.5 | 24.1 | 0.00 | 0.00 | 0.00 | 40 | 988.6 |
| 20260906222319 | 36 | 123 | 12.9 | 22.5 | 0.00 | 0.00 | 0.00 | 40 | 988.6 |
| 20260906221343 | 36 | 153 | 14.5 | 22.5 | 0.00 | 0.00 | 0.00 | 40 | 988.5 |
| 20260906221323 | 36 | 126 | 12.9 | 20.9 | 0.00 | 0.00 | 0.00 | 41 | 988.6 |
| 20260906221318 | 36 | 137 | 12.9 | 22.5 | 0.00 | 0.00 | 0.00 | 41 | 988.5 |
| 20260906221040 | 36 | 150 | 14.5 | 22.5 | 0.00 | 0.00 | 0.00 | 40 | 988.6 |
| 20260906215344 | 37 | 132 | 12.9 | 20.9 | 0.00 | 0.00 | 0.00 | 39 | 988.6 |
| 20260906214857 | 36 | 167 | 11.3 | 20.9 | 0.00 | 0.00 | 0.00 | 41 | 988.8 |
| 20260906214844 | 36 | 119 | 9.7 | 20.9 | 0.00 | 0.00 | 0.00 | 40 | 988.6 |
| 20260906213836 | 36 | 117 | 12.9 | 25.7 | 0.00 | 0.00 | 0.00 | 40 | 988.8 |
| 20260906213332 | 36 | 111 | 12.9 | 25.7 | 0.00 | 0.00 | 0.00 | 40 | 988.9 |
| 20260906212834 | 36 | 167 | 12.9 | 22.5 | 0.00 | 0.00 | 0.00 | 41 | 988.9 |
| 20260906212332 | 36 | 141 | 11.3 | 20.9 | 0.00 | 0.00 | 0.00 | 41 | 989.0 |
| 20260906211832 | 36 | 111 | 11.3 | 19.3 | 0.00 | 0.00 | 0.00 | 41 | 989.1 |
| 20260906211331 | 36 | 147 | 16.1 | 27.4 | 0.00 | 0.00 | 0.00 | 41 | 989.2 |
| 20260906210835 | 37 | 151 | 16.1 | 27.4 | 0.00 | 0.00 | 0.00 | 40 | 989.2 |
| 20260906210332 | 37 | 128 | 12.9 | 22.5 | 0.00 | 0.00 | 0.00 | 40 | 989.2 |
| 20260906205832 | 37 | 137 | 12.9 | 20.9 | 0.00 | 0.00 | 0.00 | 41 | 989.4 |
| 20260906205331 | 37 | 134 | 12.9 | 24.1 | 0.00 | 0.00 | 0.00 | 40 | 989.5 |
| 20260906204832 | 37 | 103 | 12.9 | 27.4 | 0.00 | 0.00 | 0.00 | 42 | 989.6 |
| 20260906204333 | 37 | 167 | 12.9 | 27.4 | 0.00 | 0.00 | 0.00 | 41 | 989.8 |
| 20260906203833 | 36 | 84 | 12.9 | 22.5 | 0.00 | 0.00 | 0.00 | 41 | 989.6 |
| 20260906203333 | 36 | 136 | 16.1 | 22.5 | 0.00 | 0.00 | 0.00 | 40 | 989.7 |
| 20260906203310 | 37 | 126 | 16.1 | 29.0 | 0.00 | 0.00 | 0.00 | 40 | 989.8 |
| 20260906202333 | 36 | 101 | 14.5 | 29.0 | 0.00 | 0.00 | 0.00 | 41 | 990.0 |
| 20260906202307 | 37 | 171 | 9.7 | 24.1 | 0.00 | 0.00 | 0.00 | 41 | 990.0 |
| 20260906201803 | 36 | 158 | 9.7 | 24.1 | 0.00 | 0.00 | 0.00 | 41 | 990.0 |
| 20260906200831 | 36 | 124 | 12.9 | 24.1 | 0.00 | 0.00 | 0.00 | 41 | 990.0 |
| 20260906200331 | 36 | 133 | 12.9 | 22.5 | 0.00 | 0.00 | 0.00 | 41 | 990.1 |
| 20260906200313 | 36 | 103 | 12.9 | 20.9 | 0.00 | 0.00 | 0.00 | 40 | 990.1 |
| 20260906195332 | 36 | 114 | 16.1 | 27.4 | 0.00 | 0.00 | 0.00 | 41 | 990.2 |
| 20260906194830 | 37 | 142 | 16.1 | 27.4 | 0.00 | 0.00 | 0.00 | 41 | 990.3 |
| 20260906194730 | 36 | 163 | 14.5 | 27.4 | 0.00 | 0.00 | 0.00 | 42 | 990.5 |
| 20260906194721 | 36 | 145 | 12.9 | 27.4 | 0.00 | 0.00 | 0.00 | 42 | 990.4 |
| 20260906194508 | 36 | 132 | 12.9 | 25.7 | 0.00 | 0.00 | 0.00 | 41 | 990.3 |
| 20260906192823 | 36 | 108 | 14.5 | 27.4 | 0.00 | 0.00 | 0.00 | 42 | 990.5 |
| 20260906192809 | 36 | 107 | 14.5 | 27.4 | 0.00 | 0.00 | 0.00 | 42 | 990.5 |
| 20260906191825 | 36 | 144 | 16.1 | 25.7 | 0.00 | 0.00 | 0.00 | 41 | 990.6 |
| 20260906191325 | 36 | 102 | 16.1 | 24.1 | 0.00 | 0.00 | 0.00 | 42 | 990.7 |
| 20260906191253 | 36 | 148 | 14.5 | 24.1 | 0.00 | 0.00 | 0.00 | 42 | 990.6 |
| 20260906190324 | 36 | 111 | 12.9 | 24.1 | 0.00 | 0.00 | 0.00 | 42 | 990.7 |
| 20260906185823 | 36 | 93 | 14.5 | 25.7 | 0.00 | 0.00 | 0.00 | 42 | 990.7 |
| 20260906185804 | 36 | 119 | 16.1 | 24.1 | 0.00 | 0.00 | 0.00 | 43 | 990.8 |
| 20260906184818 | 36 | 118 | 16.1 | 27.4 | 0.00 | 0.00 | 0.00 | 42 | 990.8 |
| 20260906184751 | 36 | 130 | 14.5 | 27.4 | 0.00 | 0.00 | 0.00 | 42 | 991.0 |
| 20260906184301 | 36 | 123 | 17.7 | 30.6 | 0.00 | 0.00 | 0.00 | 42 | 990.9 |
| 20260906183317 | 36 | 113 | 17.7 | 30.6 | 0.00 | 0.00 | 0.00 | 43 | 991.1 |
| 20260906182820 | 36 | 83 | 16.1 | 25.7 | 0.00 | 0.00 | 0.00 | 43 | 991.0 |
| 20260906182317 | 36 | 99 | 16.1 | 27.4 | 0.00 | 0.00 | 0.00 | 42 | 991.0 |
| 20260906182241 | 35 | 90 | 16.1 | 27.4 | 0.00 | 0.00 | 0.00 | 44 | 991.1 |
| 20260906181311 | 35 | 105 | 16.1 | 27.4 | 0.00 | 0.00 | 0.00 | 43 | 991.1 |
| 20260906180803 | 36 | 117 | 16.1 | 27.4 | 0.00 | 0.00 | 0.00 | 44 | 991.3 |
| 20260906180303 | 36 | 159 | 16.1 | 24.1 | 0.00 | 0.00 | 0.00 | 44 | 991.3 |
| 20260906175804 | 36 | 184 | 16.1 | 29.0 | 0.00 | 0.00 | 0.00 | 44 | 991.4 |
| 20260906175306 | 36 | 88 | 17.7 | 29.0 | 0.00 | 0.00 | 0.00 | 45 | 991.4 |
| 20260906174802 | 35 | 83 | 17.7 | 25.7 | 0.00 | 0.00 | 0.00 | 45 | 991.5 |
| 20260906174303 | 35 | 102 | 17.7 | 27.4 | 0.00 | 0.00 | 0.00 | 45 | 991.7 |
| 20260906173804 | 35 | 110 | 17.7 | 27.4 | 0.00 | 0.00 | 0.00 | 45 | 991.7 |
| 20260906173303 | 35 | 101 | 14.5 | 24.1 | 0.00 | 0.00 | 0.00 | 45 | 991.7 |
| 20260906172803 | 35 | 121 | 14.5 | 22.5 | 0.00 | 0.00 | 0.00 | 46 | 991.7 |
| 20260906172305 | 35 | 92 | 14.5 | 24.1 | 0.00 | 0.00 | 0.00 | 46 | 991.9 |
| 20260906171802 | 35 | 131 | 16.1 | 30.6 | 0.00 | 0.00 | 0.00 | 46 | 991.7 |
| 20260906171300 | 35 | 129 | 17.7 | 30.6 | 0.00 | 0.00 | 0.00 | 46 | 991.9 |
| 20260906170759 | 35 | 146 | 12.9 | 30.6 | 0.00 | 0.00 | 0.00 | 45 | 992.0 |
| 20260906170258 | 35 | 171 | 11.3 | 16.1 | 0.00 | 0.00 | 0.00 | 47 | 991.9 |
| 20260906170211 | 35 | 150 | 11.3 | 12.9 | 0.00 | 0.00 | 0.00 | 48 | 992.1 |
| 20260906165700 | 34 | 150 | 11.3 | 16.1 | 0.00 | 0.00 | 0.00 | 48 | 992.0 |
| 20260906164753 | 34 | 113 | 11.3 | 22.5 | 0.00 | 0.00 | 0.00 | 48 | 992.0 |
| 20260906164252 | 35 | 96 | 11.3 | 22.5 | 0.00 | 0.00 | 0.00 | 49 | 992.0 |
| 20260906164228 | 34 | 173 | 12.9 | 22.5 | 0.00 | 0.00 | 0.00 | 48 | 992.2 |
| 20260906163956 | 33 | 91 | 12.9 | 19.3 | 0.00 | 0.00 | 0.00 | 51 | 992.2 |
| 20260906162751 | 34 | 138 | 11.3 | 22.5 | 0.00 | 0.00 | 0.00 | 49 | 992.2 |
| 20260906162251 | 34 | 182 | 11.3 | 19.3 | 0.00 | 0.00 | 0.00 | 50 | 992.1 |
| 20260906161748 | 34 | 78 | 9.7 | 19.3 | 0.00 | 0.00 | 0.00 | 51 | 992.0 |
| 20260906161245 | 33 | 169 | 8.0 | 17.7 | 0.00 | 0.00 | 0.00 | 49 | 992.1 |
| 20260906160745 | 33 | 128 | 6.4 | 14.5 | 0.00 | 0.00 | 0.00 | 52 | 992.2 |
| 20260906160243 | 33 | 120 | 8.0 | 17.7 | 0.00 | 0.00 | 0.00 | 53 | 992.1 |
| 20260906155741 | 33 | 94 | 9.7 | 17.7 | 0.00 | 0.00 | 0.00 | 53 | 992.1 |
| 20260906155241 | 33 | 105 | 9.7 | 14.5 | 0.00 | 0.00 | 0.00 | 52 | 992.0 |
| 20260906154743 | 33 | 91 | 9.7 | 20.9 | 0.00 | 0.00 | 0.00 | 53 | 992.0 |
| 20260906154238 | 33 | 99 | 9.7 | 20.9 | 0.00 | 0.00 | 0.00 | 51 | 992.1 |
| 20260906153745 | 33 | 148 | 8.0 | 17.7 | 0.00 | 0.00 | 0.00 | 54 | 992.1 |
| 20260906153721 | 32 | 53 | 6.4 | 17.7 | 0.00 | 0.00 | 0.00 | 55 | 992.0 |
| 20260906152742 | 32 | 70 | 6.4 | 11.3 | 0.00 | 0.00 | 0.00 | 57 | 992.0 |
| 20260906152240 | 32 | 96 | 4.8 | 14.5 | 0.00 | 0.00 | 0.00 | 58 | 991.9 |
| 20260906151741 | 32 | 84 | 4.8 | 14.5 | 0.00 | 0.00 | 0.00 | 59 | 991.9 |
| 20260906151251 | 31 | 73 | 6.4 | 12.9 | 0.00 | 0.00 | 0.00 | 60 | 991.6 |
| 20260906151236 | 32 | 40 | 4.8 | 11.3 | 0.00 | 0.00 | 0.00 | 59 | 991.7 |
| 20260906150232 | 31 | 82 | 6.4 | 12.9 | 0.00 | 0.00 | 0.00 | 61 | 991.7 |
| 20260906145734 | 31 | 66 | 4.8 | 11.3 | 0.00 | 0.00 | 0.00 | 63 | 991.6 |
| 20260906145233 | 31 | 85 | 4.8 | 11.3 | 0.00 | 0.00 | 0.00 | 62 | 991.5 |
| 20260906144732 | 31 | 96 | 3.2 | 6.4 | 0.00 | 0.00 | 0.00 | 63 | 991.6 |
| 20260906144706 | 31 | 65 | 3.2 | 8.0 | 0.00 | 0.00 | 0.00 | 63 | 991.5 |
| 20260906144201 | 30 | 58 | 4.8 | 8.0 | 0.00 | 0.00 | 0.00 | 64 | 991.6 |
| 20260906143230 | 30 | 82 | 4.8 | 8.0 | 0.00 | 0.00 | 0.00 | 65 | 991.6 |
| 20260906142721 | 30 | 65 | 4.8 | 8.0 | 0.00 | 0.00 | 0.00 | 66 | 991.6 |
| 20260906142216 | 29 | 169 | 4.8 | 9.7 | 0.00 | 0.00 | 0.00 | 67 | 991.6 |
| 20260906142051 | 29 | 119 | 4.8 | 8.0 | 0.00 | 0.00 | 0.00 | 69 | 991.6 |
| 20260906141846 | 29 | 148 | 4.8 | 9.7 | 0.00 | 0.00 | 0.00 | 66 | 991.6 |
| 20260906141402 | 29 | 103 | 4.8 | 9.7 | 0.00 | 0.00 | 0.00 | 69 | 991.6 |
| 20260906140206 | 28 | 146 | 4.8 | 9.7 | 0.00 | 0.00 | 0.00 | 70 | 991.6 |
| 20260906135655 | 28 | 152 | 4.8 | 9.7 | 0.00 | 0.00 | 0.00 | 70 | 991.5 |
| 20260906135201 | 28 | 123 | 6.4 | 11.3 | 0.00 | 0.00 | 0.00 | 71 | 991.6 |
| 20260906134657 | 28 | 144 | 6.4 | 11.3 | 0.00 | 0.00 | 0.00 | 72 | 991.6 |
| 20260906134158 | 28 | 147 | 6.4 | 11.3 | 0.00 | 0.00 | 0.00 | 73 | 991.6 |
| 20260906133658 | 27 | 122 | 4.8 | 11.3 | 0.00 | 0.00 | 0.00 | 74 | 991.6 |
| 20260906133158 | 27 | 111 | 4.8 | 11.3 | 0.00 | 0.00 | 0.00 | 74 | 991.9 |
| 20260906132654 | 27 | 134 | 3.2 | 9.7 | 0.00 | 0.00 | 0.00 | 75 | 991.7 |
| 20260906132156 | 27 | 115 | 3.2 | 4.8 | 0.00 | 0.00 | 0.00 | 76 | 991.7 |
| 20260906132133 | 26 | 121 | 3.2 | 4.8 | 0.00 | 0.00 | 0.00 | 77 | 991.5 |
| 20260906131154 | 26 | 176 | 1.6 | 4.8 | 0.00 | 0.00 | 0.00 | 79 | 991.5 |
| 20260906130654 | 26 | 192 | 0.0 | 3.2 | 0.00 | 0.00 | 0.00 | 80 | 991.4 |
| 20260906130151 | 25 | 192 | 0.0 | 1.6 | 0.00 | 0.00 | 0.00 | 81 | 991.3 |
| 20260906130058 | 24 | 192 | 0.0 | 1.6 | 0.00 | 0.00 | 0.00 | 83 | 991.2 |
| 20260906125152 | 24 | 192 | 1.6 | 1.6 | 0.00 | 0.00 | 0.00 | 83 | 991.2 |
| 20260906125051 | 23 | 192 | 1.6 | 1.6 | 0.00 | 0.00 | 0.00 | 84 | 991.2 |
| 20260906124601 | 23 | 192 | 0.0 | 1.6 | 0.00 | 0.00 | 0.00 | 85 | 991.1 |
| 20260906123633 | 23 | 192 | 0.0 | 1.6 | 0.00 | 0.00 | 0.00 | 85 | 991.2 |
| 20260906123516 | 22 | 192 | 0.0 | 1.6 | 0.00 | 0.00 | 0.00 | 87 | 991.0 |
| 20260906123315 | 22 | 192 | 0.0 | 1.6 | 0.00 | 0.00 | 0.00 | 86 | 991.0 |
| 20260906122133 | 22 | 192 | 1.6 | 3.2 | 0.00 | 0.00 | 0.00 | 86 | 990.8 |
| 20260906121631 | 22 | 192 | 1.6 | 3.2 | 0.00 | 0.00 | 0.00 | 84 | 990.9 |
| 20260906121133 | 23 | 192 | 1.6 | 3.2 | 0.00 | 0.00 | 0.00 | 85 | 990.9 |
| 20260906120637 | 23 | 192 | 0.0 | 3.2 | 0.00 | 0.00 | 0.00 | 84 | 990.6 |
| 20260906120134 | 23 | 192 | 0.0 | 0.0 | 0.00 | 0.00 | 0.00 | 84 | 990.7 |
| 20260906115954 | 23 | 192 | 0.0 | 0.0 | 0.00 | 0.00 | 0.00 | 85 | 990.7 |
| 20260906115108 | 22 | 192 | 0.0 | 0.0 | 0.00 | 0.00 | 0.00 | 86 | 990.6 |
| 20260906114610 | 22 | 192 | 0.0 | 0.0 | 0.00 | 0.00 | 0.00 | 85 | 990.5 |
| 20260906114112 | 22 | 192 | 0.0 | 0.0 | 0.00 | 0.00 | 0.00 | 86 | 990.5 |
| 20260906113945 | 22 | 192 | 0.0 | 0.0 | 0.00 | 0.00 | 0.00 | 86 | 990.3 |
| 20260906113101 | 23 | 192 | 0.0 | 0.0 | 0.00 | 0.00 | 0.00 | 85 | 990.4 |
| 20260906112603 | 23 | 192 | 0.0 | 0.0 | 0.00 | 0.00 | 0.00 | 85 | 990.3 |
| 20260906112053 | 23 | 192 | 0.0 | 0.0 | 0.00 | 0.00 | 0.00 | 85 | 990.4 |
| 20260906111556 | 23 | 192 | 0.0 | 0.0 | 0.00 | 0.00 | 0.00 | 85 | 990.3 |
| 20260906111046 | 23 | 192 | 0.0 | 0.0 | 0.00 | 0.00 | 0.00 | 83 | 990.3 |
| 20260906110544 | 23 | 192 | 0.0 | 0.0 | 0.00 | 0.00 | 0.00 | 85 | 990.3 |
| 20260906110037 | 23 | 192 | 0.0 | 0.0 | 0.00 | 0.00 | 0.00 | 85 | 990.2 |
| 20260906105534 | 23 | 192 | 0.0 | 0.0 | 0.00 | 0.00 | 0.00 | 83 | 990.1 |
| 20260906105016 | 23 | 192 | 0.0 | 0.0 | 0.00 | 0.00 | 0.00 | 81 | 990.0 |
| 20260906104506 | 24 | 192 | 0.0 | 0.0 | 0.00 | 0.00 | 0.00 | 82 | 990.0 |
| 20260906104005 | 23 | 192 | 0.0 | 0.0 | 0.00 | 0.00 | 0.00 | 83 | 989.9 |
| 20260906103503 | 23 | 192 | 0.0 | 1.6 | 0.00 | 0.00 | 0.00 | 83 | 989.9 |
| 20260906102947 | 23 | 192 | 1.6 | 1.6 | 0.00 | 0.00 | 0.00 | 84 | 989.9 |
| 20260906102843 | 23 | 192 | 1.6 | 1.6 | 0.00 | 0.00 | 0.00 | 82 | 989.9 |
| 20260906101945 | 24 | 192 | 0.0 | 1.6 | 0.00 | 0.00 | 0.00 | 80 | 989.9 |
| 20260906101447 | 24 | 192 | 0.0 | 0.0 | 0.00 | 0.00 | 0.00 | 81 | 989.7 |
| 20260906100932 | 24 | 192 | 0.0 | 0.0 | 0.00 | 0.00 | 0.00 | 82 | 989.8 |
| 20260906100433 | 23 | 192 | 0.0 | 0.0 | 0.00 | 0.00 | 0.00 | 83 | 989.8 |
| 20260906100308 | 23 | 192 | 0.0 | 0.0 | 0.00 | 0.00 | 0.00 | 81 | 989.8 |
| 20260906095404 | 24 | 192 | 0.0 | 0.0 | 0.00 | 0.00 | 0.00 | 80 | 989.8 |
| 20260906094905 | 24 | 192 | 0.0 | 0.0 | 0.00 | 0.00 | 0.00 | 80 | 989.9 |
| 20260906094749 | 24 | 192 | 0.0 | 0.0 | 0.00 | 0.00 | 0.00 | 81 | 989.8 |
| 20260906093905 | 24 | 192 | 0.0 | 0.0 | 0.00 | 0.00 | 0.00 | 80 | 989.8 |
| 20260906093356 | 24 | 192 | 0.0 | 0.0 | 0.00 | 0.00 | 0.00 | 80 | 989.8 |
| 20260906092851 | 24 | 192 | 0.0 | 0.0 | 0.00 | 0.00 | 0.00 | 80 | 989.8 |
| 20260906092726 | 24 | 192 | 0.0 | 1.6 | 0.00 | 0.00 | 0.00 | 80 | 989.7 |
| 20260906091833 | 24 | 192 | 1.6 | 3.2 | 0.00 | 0.00 | 0.00 | 81 | 989.8 |
| 20260906091333 | 24 | 192 | 0.0 | 3.2 | 0.00 | 0.00 | 0.00 | 80 | 989.6 |
| 20260906090832 | 24 | 192 | 0.0 | 3.2 | 0.00 | 0.00 | 0.00 | 79 | 989.5 |
| 20260906090312 | 25 | 192 | 1.6 | 3.2 | 0.00 | 0.00 | 0.00 | 77 | 989.5 |
| 20260906090210 | 25 | 192 | 1.6 | 3.2 | 0.00 | 0.00 | 0.00 | 77 | 989.5 |
| 20260906085306 | 25 | 192 | 1.6 | 3.2 | 0.00 | 0.00 | 0.00 | 78 | 989.4 |
| 20260906085004 | 24 | 192 | 0.0 | 1.6 | 0.00 | 0.00 | 0.00 | 79 | 989.3 |
| 20260906084910 | 25 | 192 | 0.0 | 3.2 | 0.00 | 0.00 | 0.00 | 78 | 989.5 |
| 20260906084435 | 24 | 192 | 0.0 | 0.0 | 0.00 | 0.00 | 0.00 | 79 | 989.5 |
| 20260906083304 | 24 | 192 | 0.0 | 3.2 | 0.00 | 0.00 | 0.00 | 79 | 989.3 |
| 20260906082802 | 24 | 192 | 1.6 | 3.2 | 0.00 | 0.00 | 0.00 | 77 | 989.3 |
| 20260906082253 | 25 | 192 | 0.0 | 3.2 | 0.00 | 0.00 | 0.00 | 74 | 989.3 |
| 20260906082046 | 26 | 192 | 0.0 | 3.2 | 0.00 | 0.00 | 0.00 | 72 | 989.3 |
| 20260906081930 | 26 | 192 | 0.0 | 3.2 | 0.00 | 0.00 | 0.00 | 73 | 989.3 |
| 20260906080747 | 26 | 192 | 0.0 | 3.2 | 0.00 | 0.00 | 0.00 | 72 | 989.3 |
| 20260906080612 | 26 | 192 | 1.6 | 3.2 | 0.00 | 0.00 | 0.00 | 72 | 989.5 |
| 20260906080434 | 26 | 192 | 1.6 | 3.2 | 0.00 | 0.00 | 0.00 | 72 | 989.4 |
| 20260906075232 | 26 | 192 | 1.6 | 4.8 | 0.00 | 0.00 | 0.00 | 72 | 989.5 |
| 20260906074732 | 26 | 192 | 3.2 | 4.8 | 0.00 | 0.00 | 0.00 | 72 | 989.4 |
| 20260906074233 | 26 | 220 | 1.6 | 4.8 | 0.00 | 0.00 | 0.00 | 72 | 989.5 |
| 20260906073848 | 26 | 221 | 0.0 | 3.2 | 0.00 | 0.00 | 0.00 | 73 | 989.7 |
| 20260906073843 | 26 | 221 | 0.0 | 1.6 | 0.00 | 0.00 | 0.00 | 72 | 989.6 |
| 20260906073801 | 26 | 221 | 0.0 | 1.6 | 0.00 | 0.00 | 0.00 | 73 | 989.4 |
| 20260906072206 | 26 | 221 | 0.0 | 3.2 | 0.00 | 0.00 | 0.00 | 73 | 989.6 |
| 20260906071705 | 26 | 221 | 0.0 | 1.6 | 0.00 | 0.00 | 0.00 | 71 | 989.7 |
| 20260906071613 | 26 | 221 | 1.6 | 3.2 | 0.00 | 0.00 | 0.00 | 71 | 989.7 |
| 20260906070707 | 26 | 221 | 1.6 | 3.2 | 0.00 | 0.00 | 0.00 | 71 | 989.8 |
| 20260906070207 | 26 | 221 | 1.6 | 3.2 | 0.00 | 0.00 | 0.00 | 70 | 989.9 |
| 20260906065704 | 26 | 221 | 1.6 | 3.2 | 0.00 | 0.00 | 0.00 | 70 | 989.9 |
| 20260906065207 | 27 | 221 | 0.0 | 3.2 | 0.00 | 0.00 | 0.00 | 70 | 989.8 |
| 20260906064705 | 27 | 221 | 0.0 | 3.2 | 0.00 | 0.00 | 0.00 | 69 | 989.9 |
| 20260906064206 | 27 | 221 | 1.6 | 3.2 | 0.00 | 0.00 | 0.00 | 68 | 989.9 |
| 20260906063704 | 27 | 221 | 3.2 | 6.4 | 0.00 | 0.00 | 0.00 | 68 | 989.8 |
| 20260906063605 | 27 | 224 | 3.2 | 6.4 | 0.00 | 0.00 | 0.00 | 67 | 989.7 |
| 20260906062957 | 28 | 219 | 1.6 | 6.4 | 0.00 | 0.00 | 0.00 | 66 | 990.0 |
| 20260906062946 | 28 | 204 | 3.2 | 6.4 | 0.00 | 0.00 | 0.00 | 66 | 989.8 |
| 20260906062820 | 28 | 215 | 4.8 | 6.4 | 0.00 | 0.00 | 0.00 | 67 | 989.7 |
| 20260906061203 | 28 | 187 | 1.6 | 6.4 | 0.00 | 0.00 | 0.00 | 66 | 990.0 |
| 20260906060701 | 28 | 169 | 3.2 | 8.0 | 0.00 | 0.00 | 0.00 | 66 | 990.0 |
| 20260906060201 | 28 | 186 | 4.8 | 8.0 | 0.00 | 0.00 | 0.00 | 66 | 989.8 |
| 20260906055706 | 28 | 158 | 6.4 | 8.0 | 0.00 | 0.00 | 0.00 | 66 | 989.8 |
| 20260906055155 | 28 | 169 | 6.4 | 9.7 | 0.00 | 0.00 | 0.00 | 65 | 989.8 |
| 20260906054654 | 28 | 159 | 6.4 | 9.7 | 0.00 | 0.00 | 0.00 | 65 | 989.9 |
| 20260906054154 | 28 | 159 | 6.4 | 9.7 | 0.00 | 0.00 | 0.00 | 65 | 990.0 |
| 20260906054051 | 28 | 159 | 6.4 | 8.0 | 0.00 | 0.00 | 0.00 | 65 | 990.0 |
| 20260906053143 | 28 | 156 | 4.8 | 8.0 | 0.00 | 0.00 | 0.00 | 65 | 990.1 |
| 20260906052640 | 28 | 160 | 4.8 | 9.7 | 0.00 | 0.00 | 0.00 | 65 | 990.1 |
| 20260906052136 | 28 | 164 | 4.8 | 9.7 | 0.00 | 0.00 | 0.00 | 65 | 990.3 |
| 20260906051635 | 28 | 169 | 3.2 | 8.0 | 0.00 | 0.00 | 0.00 | 64 | 990.2 |
| 20260906051132 | 28 | 169 | 4.8 | 8.0 | 0.00 | 0.00 | 0.00 | 64 | 990.3 |
| 20260906050620 | 28 | 159 | 4.8 | 8.0 | 0.00 | 0.00 | 0.00 | 64 | 990.1 |
| 20260906050121 | 28 | 165 | 3.2 | 8.0 | 0.00 | 0.00 | 0.00 | 63 | 990.1 |
| 20260906045613 | 28 | 167 | 3.2 | 8.0 | 0.00 | 0.00 | 0.00 | 63 | 990.1 |
| 20260906045511 | 28 | 175 | 4.8 | 6.4 | 0.00 | 0.00 | 0.00 | 63 | 990.1 |
| 20260906044551 | 28 | 167 | 4.8 | 6.4 | 0.00 | 0.00 | 0.00 | 62 | 990.2 |
| 20260906044047 | 28 | 167 | 4.8 | 8.0 | 0.00 | 0.00 | 0.00 | 63 | 990.1 |
| 20260906043533 | 28 | 169 | 3.2 | 8.0 | 0.00 | 0.00 | 0.00 | 62 | 990.1 |
| 20260906043034 | 28 | 201 | 1.6 | 4.8 | 0.00 | 0.00 | 0.00 | 62 | 990.2 |
| 20260906042533 | 29 | 202 | 1.6 | 3.2 | 0.00 | 0.00 | 0.00 | 61 | 990.2 |
| 20260906042028 | 29 | 202 | 1.6 | 4.8 | 0.00 | 0.00 | 0.00 | 60 | 990.2 |
| 20260906041527 | 30 | 202 | 3.2 | 6.4 | 0.00 | 0.00 | 0.00 | 60 | 990.2 |
| 20260906041026 | 30 | 202 | 3.2 | 8.0 | 0.00 | 0.00 | 0.00 | 59 | 990.1 |
| 20260906040919 | 30 | 170 | 3.2 | 9.7 | 0.00 | 0.00 | 0.00 | 59 | 990.1 |
| 20260906040005 | 30 | 196 | 3.2 | 9.7 | 0.00 | 0.00 | 0.00 | 59 | 990.0 |
| 20260906035506 | 30 | 172 | 6.4 | 11.3 | 0.00 | 0.00 | 0.00 | 58 | 990.0 |
| 20260906035005 | 30 | 159 | 8.0 | 11.3 | 0.00 | 0.00 | 0.00 | 58 | 990.0 |
| 20260906034502 | 30 | 175 | 8.0 | 14.5 | 0.00 | 0.00 | 0.00 | 57 | 990.0 |
| 20260906034446 | 30 | 164 | 9.7 | 14.5 | 0.00 | 0.00 | 0.00 | 57 | 990.1 |
| 20260906033504 | 31 | 172 | 9.7 | 14.5 | 0.00 | 0.00 | 0.00 | 57 | 990.1 |
| 20260906032959 | 31 | 170 | 9.7 | 19.3 | 0.00 | 0.00 | 0.00 | 56 | 990.1 |
| 20260906032502 | 31 | 173 | 12.9 | 19.3 | 0.00 | 0.00 | 0.00 | 56 | 990.1 |
| 20260906031957 | 31 | 145 | 12.9 | 19.3 | 0.00 | 0.00 | 0.00 | 56 | 990.0 |
| 20260906031940 | 31 | 149 | 11.3 | 19.3 | 0.00 | 0.00 | 0.00 | 56 | 990.1 |
| 20260906031002 | 31 | 153 | 9.7 | 19.3 | 0.00 | 0.00 | 0.00 | 55 | 990.0 |
| 20260906030639 | 31 | 173 | 12.9 | 20.9 | 0.00 | 0.00 | 0.00 | 54 | 990.0 |
| 20260906030533 | 31 | 159 | 11.3 | 19.3 | 0.00 | 0.00 | 0.00 | 55 | 990.0 |
| 20260906030013 | 31 | 160 | 11.3 | 20.9 | 0.00 | 0.00 | 0.00 | 54 | 990.0 |
| 20260906025445 | 32 | 151 | 14.5 | 19.3 | 0.00 | 0.00 | 0.00 | 52 | 989.9 |
| 20260906025206 | 32 | 161 | 14.5 | 19.3 | 0.00 | 0.00 | 0.00 | 53 | 990.0 |
| 20260906023955 | 32 | 154 | 11.3 | 19.3 | 0.00 | 0.00 | 0.00 | 52 | 989.8 |
| 20260906023455 | 31 | 160 | 8.0 | 19.3 | 0.00 | 0.00 | 0.00 | 52 | 989.7 |
| 20260906022959 | 31 | 141 | 4.8 | 14.5 | 0.00 | 0.00 | 0.00 | 51 | 989.4 |
| 20260906022456 | 31 | 146 | 3.2 | 6.4 | 0.00 | 0.00 | 0.00 | 50 | 989.3 |
| 20260906021955 | 31 | 151 | 3.2 | 4.8 | 0.00 | 0.00 | 0.00 | 49 | 989.2 |
| 20260906021924 | 31 | 143 | 3.2 | 4.8 | 0.00 | 0.00 | 0.00 | 49 | 989.1 |
| 20260906020955 | 31 | 143 | 1.6 | 4.8 | 0.00 | 0.00 | 0.00 | 49 | 989.1 |
| 20260906020452 | 31 | 143 | 3.2 | 4.8 | 0.00 | 0.00 | 0.00 | 49 | 989.1 |
| 20260906015958 | 31 | 143 | 3.2 | 4.8 | 0.00 | 0.00 | 0.00 | 48 | 988.8 |
| 20260906015440 | 31 | 142 | 3.2 | 4.8 | 0.00 | 0.00 | 0.00 | 48 | 988.9 |
| 20260906014938 | 31 | 142 | 3.2 | 4.8 | 0.00 | 0.00 | 0.00 | 48 | 988.9 |
| 20260906014445 | 32 | 142 | 1.6 | 4.8 | 0.00 | 0.00 | 0.00 | 48 | 988.8 |
| 20260906013939 | 31 | 142 | 1.6 | 3.2 | 0.00 | 0.00 | 0.00 | 48 | 988.7 |
| 20260906013441 | 32 | 142 | 1.6 | 3.2 | 0.00 | 0.00 | 0.00 | 48 | 988.7 |
| 20260906012937 | 32 | 142 | 3.2 | 3.2 | 0.00 | 0.00 | 0.00 | 47 | 988.7 |
| 20260906012438 | 32 | 142 | 3.2 | 3.2 | 0.00 | 0.00 | 0.00 | 47 | 988.6 |
| 20260906011934 | 32 | 142 | 1.6 | 3.2 | 0.00 | 0.00 | 0.00 | 47 | 988.6 |
| 20260906011434 | 32 | 142 | 1.6 | 3.2 | 0.00 | 0.00 | 0.00 | 46 | 988.6 |
| 20260906010931 | 32 | 142 | 1.6 | 3.2 | 0.00 | 0.00 | 0.00 | 47 | 988.5 |
| 20260906010426 | 32 | 142 | 3.2 | 4.8 | 0.00 | 0.00 | 0.00 | 46 | 988.4 |
| 20260906005925 | 33 | 142 | 3.2 | 4.8 | 0.00 | 0.00 | 0.00 | 46 | 988.5 |
| 20260906005424 | 33 | 142 | 3.2 | 4.8 | 0.00 | 0.00 | 0.00 | 45 | 988.5 |
| 20260906005323 | 33 | 142 | 4.8 | 9.7 | 0.00 | 0.00 | 0.00 | 45 | 988.4 |
| 20260906004415 | 33 | 146 | 4.8 | 9.7 | 0.00 | 0.00 | 0.00 | 44 | 988.5 |
| 20260906003919 | 34 | 135 | 6.4 | 11.3 | 0.00 | 0.00 | 0.00 | 43 | 988.4 |
| 20260906003415 | 34 | 119 | 6.4 | 11.3 | 0.00 | 0.00 | 0.00 | 43 | 988.4 |
| 20260906002912 | 34 | 139 | 4.8 | 11.3 | 0.00 | 0.00 | 0.00 | 43 | 988.4 |
| 20260906002415 | 35 | 150 | 4.8 | 11.3 | 0.00 | 0.00 | 0.00 | 42 | 988.5 |
| 20260906002343 | 35 | 113 | 6.4 | 12.9 | 0.00 | 0.00 | 0.00 | 42 | 988.5 |
| 20260906001413 | 35 | 111 | 8.0 | 14.5 | 0.00 | 0.00 | 0.00 | 41 | 988.4 |
| 20260906000932 | 35 | 105 | 11.3 | 16.1 | 0.00 | 0.00 | 0.00 | 41 | 988.5 |
| 20260906000915 | 35 | 148 | 11.3 | 16.1 | 0.00 | 0.00 | 0.00 | 41 | 988.5 |
| 20260905235909 | 35 | 122 | 9.7 | 16.1 | 0.00 | 0.00 | 0.00 | 41 | 988.4 |
| 20260905235410 | 35 | 107 | 9.7 | 12.9 | 0.00 | 0.00 | 0.00 | 40 | 988.4 |
| 20260905234909 | 35 | 116 | 9.7 | 14.5 | 0.00 | 0.00 | 0.00 | 39 | 988.5 |
| 20260905234411 | 36 | 103 | 9.7 | 14.5 | 0.00 | 0.00 | 0.00 | 39 | 988.5 |
| 20260905234404 | 36 | 109 | 9.7 | 17.7 | 0.00 | 0.00 | 0.00 | 39 | 988.4 |
| 20260905233414 | 36 | 104 | 9.7 | 17.7 | 0.00 | 0.00 | 0.00 | 39 | 988.3 |
| 20260905233402 | 36 | 135 | 9.7 | 16.1 | 0.00 | 0.00 | 0.00 | 38 | 988.2 |
| 20260905232857 | 36 | 107 | 9.7 | 16.1 | 0.00 | 0.00 | 0.00 | 39 | 988.2 |
| 20260905231910 | 36 | 109 | 9.7 | 16.1 | 0.00 | 0.00 | 0.00 | 39 | 988.3 |
| 20260905231405 | 36 | 122 | 8.0 | 16.1 | 0.00 | 0.00 | 0.00 | 39 | 988.4 |
| 20260905230901 | 36 | 107 | 4.8 | 12.9 | 0.00 | 0.00 | 0.00 | 39 | 988.3 |
| 20260905230402 | 36 | 128 | 8.0 | 16.1 | 0.00 | 0.00 | 0.00 | 38 | 988.3 |
| 20260905225903 | 36 | 159 | 8.0 | 16.1 | 0.00 | 0.00 | 0.00 | 39 | 988.3 |
| 20260905225402 | 36 | 118 | 6.4 | 14.5 | 0.00 | 0.00 | 0.00 | 38 | 988.3 |
| 20260905224900 | 36 | 136 | 8.0 | 14.5 | 0.00 | 0.00 | 0.00 | 37 | 988.3 |
| 20260905224357 | 36 | 137 | 6.4 | 14.5 | 0.00 | 0.00 | 0.00 | 37 | 988.3 |
| 20260905224345 | 36 | 111 | 9.7 | 22.5 | 0.00 | 0.00 | 0.00 | 37 | 988.2 |
| 20260905223353 | 36 | 92 | 11.3 | 22.5 | 0.00 | 0.00 | 0.00 | 36 | 988.2 |
| 20260905222848 | 36 | 96 | 9.7 | 20.9 | 0.00 | 0.00 | 0.00 | 37 | 988.2 |